This demonstration page uses our WeatherBlox Daily Observations layout. Learn more.

Left ArrowRight Arrow

41.12389, -100.76542

Hourly Observations for July 15, 2015

Temp ( °F °C ) Dew Point ( °F °C ) Humidity (%) Winds ( mph kmh ) Pressure ( in mb ) Visibility ( mi km ) Precip ( " mm )
12:53 am 00:53 Mostly Cloudy 73 22.8 57 13.9 57 57 NNE 15 24 29.85 1011 10 16 0.00 0.00
1:22 am 01:22 Cloudy with Thunderstorms 70 21 61 16 73 73 NW 10 17 29.85 1011 10 16 0.00 0.00
1:34 am 01:34 Cloudy with Strong Thunderstorms 68 20 63 17 83 83 ENE 16 26 29.88 1012 2 2 0.00 0.00
1:38 am 01:38 Cloudy with Strong Thunderstorms 66 19 63 17 88 88 N 16 26 29.91 1013 1 2 0.00 0.00
1:41 am 01:41 Cloudy with Strong Thunderstorms 66 19 63 17 88 88 NNE 13 20 29.91 1013 2 2 0.00 0.00
1:43 am 01:43 Cloudy with Strong Thunderstorms 66 18.9 63 17.2 90 90 NNE 10 17 29.91 1013 2 3 0.69 17.53
1:50 am 01:50 Cloudy with Thunderstorms 66 19 63 17 88 88 NE 9 15 29.88 1012 10 16 0.00 0.00
1:53 am 01:53 Cloudy with Thunderstorms 66 18.9 62 16.7 87 87 ENE 8 13 29.88 1012 10 16 0.72 18.29
2:10 am 02:10 Mostly Cloudy with Rain 66 19 63 17 88 88 NE 14 22 29.83 1010 10 16 0.00 0.00
2:53 am 02:53 Cloudy with Light Rain 67 19.4 62 16.7 84 84 NE 13 20 29.83 1010 10 16 0.05 1.27
3:16 am 03:16 Cloudy with Thunderstorms 66 18.9 61 16.1 84 84 NNE 13 20 29.77 1008 10 16 0.06 1.52
3:31 am 03:31 Cloudy 66 18.9 61 16.1 84 84 VRB 3 6 29.80 1009 10 16 0.07 1.78
3:42 am 03:42 Cloudy with Thunderstorms 67 19.4 60 15.6 79 79 N 7 11 29.80 1009 10 16 0.07 1.78
3:53 am 03:53 Cloudy with Nearby Thunderstorms 68 20 61 16.1 78 78 Calm 29.82 1010 10 16 0.07 1.78
4:05 am 04:05 Cloudy with Strong Thunderstorms 68 20 61 16 78 78 SE 7 11 29.83 1010 7 11 0.00 0.00
4:26 am 04:26 Cloudy with Nearby Thunderstorms 65 18.3 62 16.7 90 90 ENE 8 13 29.85 1011 7 11 0.18 4.57
4:53 am 04:53 Mostly Cloudy with Light Rain 66 18.9 63 17.2 90 90 S 9 15 29.85 1011 10 16 0.21 5.33
5:04 am 05:04 Mostly Cloudy with Heavy Rain 66 19 64 18 94 94 SE 17 28 29.88 1012 5 8 0.00 0.00
5:09 am 05:09 Mostly Cloudy with Heavy Rain 65 18.3 64 17.8 97 97 ESE 26 43 29.88 1012 3 4 0.13 3.30
5:26 am 05:26 Cloudy with Heavy Rain 65 18.3 64 17.8 97 97 ENE 12 19 29.88 1012 4 6 0.62 15.75
5:33 am 05:33 Cloudy with Heavy Rain 65 18.3 63 17.2 93 93 ENE 12 19 29.88 1012 10 16 0.70 17.78
5:53 am 05:53 Cloudy with Rain 65 18.3 63 17.2 93 93 ENE 12 19 29.86 1011 10 16 0.74 18.80
6:53 am 06:53 Cloudy 66 18.9 63 17.2 90 90 Calm 29.84 1011 10 16 0.01 0.25
7:53 am 07:53 Cloudy 67 19.4 63 17.2 87 87 Calm 29.84 1011 10 16 0.00 0.03
8:53 am 08:53 Mostly Sunny 69 20.6 64 17.8 84 84 ENE 5 7 29.84 1011 10 16 0.00 0.00
9:53 am 09:53 Mostly Cloudy 71 21.7 63 17.2 76 76 E 7 11 29.88 1012 10 16 0.00 0.00
10:20 am 10:20 Cloudy 70 21.1 64 17.8 82 82 SSE 8 13 29.85 1011 10 16 0.00 0.00
10:29 am 10:29 Mostly Cloudy 71 21.7 65 18.3 81 81 SSE 6 9 29.85 1011 10 16 0.00 0.00
10:40 am 10:40 Mostly Cloudy 72 22 64 18 78 78 S 8 13 29.85 1011 10 16 0.00 0.00
10:53 am 10:53 Mostly Cloudy 73 22.8 64 17.8 74 74 SE 6 9 29.90 1012 10 16 0.00 0.00
11:20 am 11:20 Partly Cloudy 75 24 64 18 69 69 SE 5 7 29.83 1010 10 16 0.00 0.00
11:53 am 11:53 Sunny 76 24.4 64 17.8 67 67 VRB 5 7 29.88 1012 10 16 0.00 0.00
12:53 pm 12:53 Mostly Sunny 79 26.1 65 18.3 62 62 ESE 7 11 29.88 1012 10 16 0.00 0.00
1:53 pm 13:53 Partly Cloudy 80 26.7 62 16.7 54 54 VRB 6 9 29.87 1011 10 16 0.00 0.00
2:53 pm 14:53 Partly Cloudy 81 27.2 64 17.8 57 57 S 8 13 29.85 1011 10 16 0.00 0.00
3:53 pm 15:53 Sunny 84 28.9 64 17.8 51 51 SE 7 11 29.84 1010 10 16 0.00 0.00
4:53 pm 16:53 Mostly Cloudy 81 27.2 64 17.8 57 57 ESE 8 13 29.83 1010 10 16 0.00 0.00
5:53 pm 17:53 Mostly Sunny 82 27.8 64 17.8 55 55 ESE 8 13 29.81 1010 10 16 0.00 0.00
6:53 pm 18:53 Sunny 82 27.8 63 17.2 53 53 ESE 9 15 29.78 1009 10 16 0.00 0.00
7:53 pm 19:53 Sunny 81 27.2 66 18.9 61 61 E 6 9 29.78 1008 10 16 0.00 0.00
8:53 pm 20:53 Mostly Sunny 77 25 69 20.6 77 77 E 3 6 29.82 1010 10 16 0.00 0.00
9:53 pm 21:53 Clear 73 22.8 68 20 84 84 E 6 9 29.82 1010 10 16 0.00 0.00
10:53 pm 22:53 Clear 71 21.7 68 20 90 90 ESE 6 9 29.83 1010 10 16 0.00 0.00
11:53 pm 23:53 Clear 70 21.1 67 19.4 90 90 ESE 6 9 29.80 1009 10 16 0.00 0.00

Powered by AerisWeather